Beaufort, SC

10:46 AM EST on December 07, 2016 (GMT -0500)
Beaufort Marine Corps Air Station

Weather History for KNBC - July, 2012

Change the Weather History Date:

Thursday, July 5, 2012

  Actual Average Record
Temperature  
Mean Temperature 86 °F -  
Max Temperature 98 °F 90 °F 98 °F (2012)
Min Temperature 75 °F 72 °F 58 °F (1933)
Cooling Degree Days 22    
Growing Degree Days 36 (Base 50)    
Moisture  
Dew Point 74 °F    
Average Humidity 69    
Maximum Humidity 88    
Minimum Humidity 39    
Precipitation  
Precipitation 0.00 in - - ()
Sea Level Pressure  
Sea Level Pressure 29.97 in    
Wind  
Wind Speed 5 mph (SW)    
Max Wind Speed 9 mph    
Max Gust Speed 16 mph    
Visibility 10 miles    
Events      
Averages and records for this station are not official NWS values.
T = Trace of Precipitation, MM = Missing Value Source: NWS Daily Summary

Daily Weather History Graph

Daily Weather History Graph

Search for Another Location

Airport or City:

Trip Planner

Search our weather history database for the weather conditions in past years. The results will help you decide how hot, cold, wet, or windy it might be!

Date:

Astronomy

Jul. 05, 2012 Rise Set
Actual Time 6:21 AM EDT 8:33 PM EDT
Civil Twilight 5:53 AM EDT 9:01 PM EDT
Nautical Twilight 5:18 AM EDT 9:36 PM EDT
Astronomical Twilight 4:41 AM EDT 10:13 PM EDT
Moon 10:00 PM EDT (7/5) 8:22 AM EDT (7/5)
Length of Visible Light 15h 08m
Length of Day
14h 12m
Waning Gibbous, 95% of the Moon is Illuminated
Jul 5
Waning Gibbous
Jul 10
Last Quarter
Jul 19
New
Jul 26
First Quarter
Aug 1
Full

Hourly Weather History & Observations

Time (EDT) Temp. Heat Index Dew Point Humidity Pressure Visibility Wind Dir Wind Speed Gust Speed Precip Events Conditions
12:56 AM 82.0 °F 90.2 °F 77.0 °F 85% 30.01 in 7.0 mi South 3.5 mph - N/A   Clear
1:56 AM 81.0 °F 87.3 °F 75.9 °F 85% 29.99 in 9.0 mi SSW 3.5 mph - N/A   Clear
2:56 AM 79.0 °F - 75.0 °F 88% 29.99 in 6.0 mi WSW 4.6 mph - N/A   Clear
3:56 AM 78.1 °F - 73.0 °F 84% 29.98 in 9.0 mi WSW 6.9 mph - N/A   Clear
4:56 AM 77.0 °F - 72.0 °F 84% 29.99 in 9.0 mi WSW 5.8 mph - N/A   Clear
5:56 AM 75.9 °F - 72.0 °F 87% 29.99 in 9.0 mi WSW 5.8 mph - N/A   Clear
6:56 AM 75.9 °F - 72.0 °F 87% 30.00 in 8.0 mi WSW 6.9 mph - N/A   Clear
7:56 AM 78.1 °F - 72.0 °F 81% 30.00 in 10.0 mi WSW 8.1 mph - N/A   Clear
8:56 AM 82.0 °F 86.7 °F 72.0 °F 71% 30.01 in 10.0 mi WSW 9.2 mph - N/A   Clear
9:56 AM 84.0 °F 89.6 °F 72.0 °F 67% 30.01 in 10.0 mi West 6.9 mph - N/A   Clear
10:56 AM 86.0 °F 93.0 °F 73.0 °F 65% 30.01 in 10.0 mi WSW 9.2 mph - N/A   Clear
11:56 AM 89.1 °F 98.0 °F 73.9 °F 61% 30.00 in 10.0 mi Variable 5.8 mph - N/A   Clear
12:56 PM 91.9 °F 100.7 °F 73.0 °F 54% 29.99 in 10.0 mi Variable 4.6 mph - N/A   Clear
1:56 PM 95.0 °F 105.2 °F 73.9 °F 50% 29.98 in 10.0 mi SSW 3.5 mph - N/A   Mostly Cloudy
2:56 PM 96.1 °F 104.9 °F 72.0 °F 46% 29.95 in 10.0 mi WSW 5.8 mph - N/A   Partly Cloudy
3:56 PM 98.1 °F 104.4 °F 69.1 °F 39% 29.93 in 10.0 mi WSW 8.1 mph - N/A   Partly Cloudy
4:56 PM 93.9 °F 108.4 °F 77.0 °F 58% 29.91 in 10.0 mi South 6.9 mph 16.1 mph N/A   Scattered Clouds
5:56 PM 93.9 °F 106.9 °F 75.9 °F 56% 29.91 in 10.0 mi SSW 8.1 mph - N/A   Partly Cloudy
6:56 PM 89.1 °F 98.0 °F 73.9 °F 61% 29.91 in 10.0 mi SSW 6.9 mph - N/A   Clear
7:56 PM 86.0 °F 90.1 °F 69.1 °F 57% 29.93 in 10.0 mi SW 4.6 mph - N/A   Clear
8:56 PM 84.9 °F 92.1 °F 73.9 °F 69% 29.94 in 10.0 mi SSW 3.5 mph - N/A   Clear
9:56 PM 84.0 °F 92.6 °F 75.9 °F 76% 29.94 in 10.0 mi SSW 4.6 mph - N/A   Clear
10:56 PM 84.0 °F 92.6 °F 75.9 °F 76% 29.97 in 10.0 mi SSW 4.6 mph - N/A   Clear
11:56 PM 84.0 °F 93.7 °F 77.0 °F 79% 29.97 in 10.0 mi SSW 5.8 mph - N/A   Partly Cloudy